www.pogodaiklimat.ru

Погода и климат >> Архив погоды >> Таиланд >> Си Самронг Агромет


ПОГОДА в Си Самронг Агромете

  • Прогноз погоды в Си Самронг Агромете
  • Монитор погоды в Си Самронг Агромете

АРХИВ ПОГОДЫ в Си Самронг Агромете

Время (UTC), дата Ветер
(напр.,м/с)
 
Видим.   Явления Облачность Т
(С)
Тd
(С)
f
(%)
Тe
(С)
Тes
(С)
Комфортность P
(гПа)
Po
(гПа)
Тmin
(С)
Tmax
(С)
R
(мм)
R24
(мм)
S
(см)
18 11.08 штиль 0 10 км {дождь} 10/6 600 м
[Cu Sc Ac trans Cs]
+26.3 +25.6 96 +39 +39 очень
душно
1003.1 996.9 0.2
21 11.08 штиль 0 10 км 10/6 600 м
[Cu Sc Ac trans Cs]
+26.0 +25.7 98 +38 +38 очень
душно
1002.0 995.8
00 12.08 штиль 0 10 км 10/5 600 м
[Cu Sc Ac trans Cs]
+26.0 +25.4 97 +38 +38 очень
душно
1005.2 999.0 +25.5
03 12.08 штиль 0 12 км 10/6 600 м
[Cu Sc Ac trans Cs]
+30.0 +24.3 72 +42 +46 опасность
перегрева
1006.2 1000.0
06 12.08 штиль 0 12 км 10/6 600 м
[Cu Sc Ac trans Cs]
+31.5 +25.9 72 +47 +52 опасность
перегрева
1003.7 997.6
09 12.08 З 6 10 км {дождь} 10/6 600 м
[Cu Sc Ac trans Cs]
+31.0 +26.1 75 +46 +47 опасность
перегрева
1003.3 997.2 0.3
12 12.08 штиль 0 7000 м слаб. дождь 10/6 600 м
[Cu Sc Ac trans Cs]
+26.2 +25.2 94 +38 +38 очень
душно
1005.1 998.9 +32.3 8
15 12.08 штиль 0 7000 м слаб. дождь 10/6 600 м
[Sc diur, vesp Ac trans Cs]
+26.0 +25.0 94 +37 +37 очень
душно
1007.1 1000.9 0.5
18 12.08 штиль 0 6000 м дымка {дождь} 10/6 600 м
[Cu Sc Ac trans Cs]
+25.8 +25.4 98 +38 +38 очень
душно
1006.2 1000.0 0.8
21 12.08 штиль 0 6000 м дымка 10/6 600 м
[Cu Sc Ac trans Cs]
+25.7 +25.4 98 +37 +37 очень
душно
1006.0 999.7
00 13.08 штиль 0 7000 м дымка 10/6 600 м
[Cu Sc Ac trans Cs]
+25.6 +25.4 99 +37 +37 очень
душно
1007.8 1001.6 +25.4
03 13.08 штиль 0 10 км 10/6 600 м
[Cu Sc Ac trans Cs]
+27.5 +25.8 90 +41 +45 опасность
перегрева
1009.6 1003.4
06 13.08 ЮВ 4 12 км 10/6 600 м
[Cu Sc Ac trans Cs]
+30.2 +26.4 80 +46 +49 опасность
перегрева
1008.4 1002.3
09 13.08 штиль 0 12 км 10/5 600 м
[Cu Sc Ac trans Cs]
+31.6 +26.9 76 +49 +52 опасность
перегрева
1005.5 999.4
12 13.08 ЮВ 3 10 км {дождь} 10/5 600 м
[Cu Sc Ac trans Cs]
+26.4 +25.8 97 +39 +39 очень
душно
1007.4 1001.2 +32.2 3
15 13.08 штиль 0 10 км 10/5 600 м
[Cu Sc Ac trans Cs]
+26.0 +25.6 98 +38 +38 очень
душно
1009.0 1002.8
18 13.08 штиль 0 10 км 10/5 600 м
[Cu Sc Ac trans Cs]
+25.8 +25.5 98 +38 +38 очень
душно
1008.3 1002.1
21 13.08 штиль 0 10 км 10/5 600 м
[Cu Sc Ac trans Cs]
+25.6 +25.2 98 +37 +37 очень
душно
1007.3 1001.1
00 14.08 штиль 0 8000 м дымка 8/3 600 м
[Sc Ac trans Cs]
+25.3 +25.3 100 +36 +37 очень
душно
1007.6 1001.3 +25.0
03 14.08 штиль 0 10 км 6/3 600 м
[Sc Ac trans Cs]
+30.0 +26.2 80 +45 +57 опасность
перегрева
1008.6 1002.4
06 14.08 ЮВ 3 12 км 10/3 600 м
[Sc Ac trans Cs]
+32.0 +24.9 66 +45 +52 опасность
перегрева
1007.3 1001.2
09 14.08 В 3 6000 м гроза, ливневой дождь 10/6 600 м
[Cu Sc As op]
+25.2 +24.6 96 +35 +36 очень
душно
1006.6 1000.3 13
12 14.08 штиль 0 6000 м слаб. дождь {гроза} 10/5 600 м
[Cu Sc As op]
+25.2 +25.2 100 +36 +36 очень
душно
1006.4 1000.2 +33.2 6
15 14.08 штиль 0 8000 м дымка {дождь} 10/6 600 м
[Cu Sc Ac trans Cs]
+25.0 +24.8 99 +35 +35 очень
душно
1008.6 1002.4 0.2
18 14.08 штиль 0 7000 м дымка {дождь} 10/5 600 м
[Cu Sc Ac trans Cs]
+24.8 +24.6 99 +35 +35 очень
душно
1007.6 1001.4 19
21 14.08 штиль 0 8000 м дымка 10/4 600 м
[Sc Ac trans Cs]
+25.0 +24.8 99 +35 +35 очень
душно
1006.0 999.8
00 15.08 штиль 0 8000 м дымка 8/3 600 м
[Sc Ac trans Cs]
+25.5 +25.3 99 +37 +38 очень
душно
1007.1 1000.9 +24.8
03 15.08 З 4 8000 м дымка 8/4 600 м
[Sc Ac trans Cs]
+28.5 +26.4 88 +43 +48 опасность
перегрева
1007.8 1001.7
06 15.08 СЗ 8 8000 м дымка 8/3 600 м
[Sc Ac trans Cs]
+32.4 +25.8 68 +48 +49 опасность
перегрева
1005.9 999.9
09 15.08 З 6 10 км 5/1 600 м
[Cu hum Ac trans Cs]
+33.5 +26.3 66 +50 +52 опасность
перегрева
1002.5 996.5
12 15.08 ЮЗ 6 10 км 5/1 600 м
[Cu hum Ac trans Cs]
+31.0 +25.4 72 +45 +45 опасность
перегрева
1003.0 996.9 +33.5
15 15.08 штиль 0 10 км 6/3 600 м
[Cu hum Ac trans Cs]
+29.0 +25.5 81 +43 +43 опасность
перегрева
1005.1 999.0
18 15.08 штиль 0 10 км 8/3 600 м
[Sc Ac trans Cs]
+28.7 +25.3 82 +42 +42 опасность
перегрева
1004.2 998.1
21 15.08 штиль 0 10 км 8/3 600 м
[Sc Ac trans Cs]
+27.5 +25.4 88 +40 +40 очень
душно
1003.1 996.9
00 16.08 штиль 0 10 км 10/3 600 м
[Sc Ac trans Cs]
+26.8 +24.9 89 +38 +39 очень
душно
1004.6 998.4 +26.4
03 16.08 З 5 10 км 10/3 600 м
[Sc Ac trans Cs]
+30.7 +25.2 73 +45 +47 опасность
перегрева
1005.7 999.6
06 16.08 З 4 10 км 10/5 600 м
[Cu Sc Ac trans Cs]
+32.5 +25.8 68 +48 +51 опасность
перегрева
1004.2 998.1
09 16.08 З 9 10 км 8/3 600 м
[Sc Ac trans Cs]
+32.8 +24.1 60 +45 +45 опасность
перегрева
1001.6 995.5
12 16.08 З 8 10 км 10/3 600 м
[Sc Ac trans Cs]
+30.5 +24.7 71 +43 +43 опасность
перегрева
1002.8 996.7 +34.0
15 16.08 штиль 0 10 км 10/4 600 м
[Cu Sc Ac trans Cs]
+28.8 +24.0 75 +40 +40 очень
душно
1004.3 998.2
18 16.08 штиль 0 10 км 8/3 600 м
[Sc Ac trans Cs]
+28.0 +25.1 84 +40 +40 очень
душно
1003.5 997.4
21 16.08 штиль 0 10 км 8/4 600 м
[Sc Ac trans Cs]
+27.0 +24.8 88 +39 +39 очень
душно
1002.5 996.4
00 17.08 штиль 0 10 км 10/4 600 м
[Sc Ac trans Cs]
+27.2 +25.9 93 +41 +41 опасность
перегрева
1005.1 998.9 +26.6
03 17.08 штиль 0 12 км 10/5 600 м
[Sc Ac trans Cs]
+31.3 +25.2 70 +45 +50 опасность
перегрева
1006.7 1000.6
06 17.08 штиль 0 10 км 10/5 600 м
[Sc Ac trans Cs]
+31.5 +24.7 67 +44 +52 опасность
перегрева
1006.2 1000.1
09 17.08 штиль 0 12 км 8/4 600 м
[Cu Sc Ac trans Cs]
+31.0 +24.9 70 +44 +49 опасность
перегрева
1003.8 997.7
12 17.08 штиль 0 10 км 10/6 600 м
[Cu Sc Ac trans Cs]
+30.7 +24.7 70 +43 +43 опасность
перегрева
1005.9 999.8 +32.9
15 17.08 штиль 0 10 км 10/5 600 м
[Cu Sc Ac trans Cs]
+27.7 +25.7 89 +41 +41 опасность
перегрева
1008.9 1002.7
18 17.08 штиль 0 10 км 10/6 600 м
[Cu Sc Ac trans Cs]
+26.5 +25.5 94 +39 +39 очень
душно
1007.4 1001.2
21 17.08 штиль 0 10 км 10/6 600 м
[Cu Sc Ac trans Cs]
+26.0 +25.3 96 +38 +38 очень
душно
1005.8 999.6
00 18.08 штиль 0 10 км 10/4 600 м
[Cu Sc Ac trans Cs]
+25.7 +25.1 96 +37 +37 очень
душно
1008.9 1002.7 +25.4
03 18.08 ЮВ 3 12 км 8/5 600 м
[Cu Sc Ac trans Cs]
+30.0 +25.3 76 +44 +48 опасность
перегрева
1010.4 1004.2
06 18.08 ЮЗ 6 12 км 10/6 600 м
[Cu Sc Ac trans Cs]
+31.8 +25.0 67 +45 +47 опасность
перегрева
1008.9 1002.8
09 18.08 штиль 0 12 км 10/5 600 м
[Cu Sc Ac trans Cs]
+31.5 +25.6 71 +46 +49 опасность
перегрева
1005.8 999.7
12 18.08 штиль 0 12 км 10/5 600 м
[Cu Sc Ac trans Cs]
+28.5 +26.2 87 +43 +43 опасность
перегрева
1007.1 1000.9 +32.9
15 18.08 штиль 0 12 км 10/5 600 м
[Cu Sc Ac trans Cs]
+28.0 +25.9 88 +42 +42 опасность
перегрева
1009.5 1003.3

 

Местоположение метеостанции Си Самронг Агромет (Таиланд): широта 17.17 долгота 99.87 высота над уровнем моря 54 м.

В архиве по умолчанию представлена погода в Си Самронг Агромете за последнюю неделю. Архивные данные за месяц целиком и за предыдущие месяцы, начиная с января 2011 года, Вы можете получить, выбрав интересующий диапазон дат из раскрывающегося списка и нажав кнопку "Ввод!".


*Определитесь, кто Вы:
робот инопланетянин человек

Внимание! Время в таблицах - всемирное. Для получения местного времени необходимо прибавить поправку, которая равна 7 ч.

Смотрите также архив погоды в соседних городах и на ближайших метеорологических станциях:

Погода в Сукхотаи (Таиланд) (11 км)
Погода в Уттарадите (Таиланд) (56 км)
Погода в Пхитсанулоке (Таиланд) (60 км)
Погода в Таке (Таиланд) (83 км)
Погода в Кампхэнгпхете (Таиланд) (85 км)
Погода в Тоене (Таиланд) (85 км)
Погода на Плотине Пумипона (Таиланд) (91 км)
Погода в Пичит Агромете (Таиланд) (93 км)
Погода в Дои Му Со Агромете (Таиланд) (110 км)
Погода в Прхрэ (Таиланд) (115 км)

Пояснения к столбцам:

Ветер - указаны скорость ветра в м/с - средняя за 10 мин, порывы в срок и между сроками (в фигурных скобках) и направление, откуда дует ветер: С - северный, СВ - северо-восточный, В - восточный, ЮВ - юго-восточный, Ю - южный, ЮЗ - юго-западный, З - западный, СЗ - северо-западный.
Видимость - горизонтальная дальность видимости в метрах или километрах. При видимости от 1 до 10 км при отсутствии осадков обычно наблюдается дымка, при ухудшении видимости до 1 км и менее - туман. В сухую погоду видимость может ухудшаться дымом, пылью или мглою.
Явления - указаны атмосферные явления, наблюдавшиеся в срок или в последний час перед сроком; фигурными скобками обозначены явления, наблюдавшиеся между сроками (за 1-3 часа до срока); квадратными скобками обозначены град или гололедные отложения с указанием их диаметра в мм.
Облачность - указаны через наклонную черту общая и нижняя облачность в баллах и высота нижней границы облаков в метрах; квадратными скобками обозначены формы облаков: Ci - перистые, Cs - перисто-слоистые, Cc - перисто-кучевые, Ac - высококучевые, As - высокослоистые, Sc - слоисто-кучевые, Ns - слоисто-дождевые, Cu - кучевые, Cb - кучево-дождевые. Подробнее классификацию облаков см. в Атласе облаков (PDF).
T - Температура воздуха - температура, измеренная на высоте 2 м над землей.
Td - Температура точки росы - температура, при понижении до которой содержащийся в воздухе водяной пар достигнет насыщения.
f - Относительная влажность воздуха - влажноcть воздуха, измеренная на высоте 2 м над землей.
Te - Эффективная температура - температура, которую ощущает одетый по сезону человек в тени. Характеристика душности погоды. При расчете учитывается влияние влажности воздуха и скорости ветра на теплоощущения человека.
Tes - Эффективная температура на солнце - температура, которую ощущает человек, с поправкой на солнечный нагрев. Характеристика знойности погоды. Зависит от высоты солнца над горизонтом, облачности и скорости ветра. Ночью, в пасмурную погоду, а также при ветре 12 м/с и более поправка равна нулю.
P - Атмосферное давление - приведенное к уровню моря атмосферное давление.
Po - Атмосферное давление - измеренное на уровне метеостанции атмосферное давление.
Tmin - Минимальная температура - минимум температуры воздуха на высоте 2 м над землей.
Tmax - Максимальная температура - максимум температуры воздуха на высоте 2 м над землей.
R - Количество осадков - Количество выпавших осадков за период времени, мм. При наведении курсора мыши на число - период времени, за который выпало указанное количество осадков.
R24 - Количество осадков - Количество выпавших осадков за 24 часа, мм.
S - Снежный покров - Высота снежного покрова, см. При наведении курсора мыши на число - состояние снежного покрова и степень покрытия местности в баллах.